Simultaneous Nadir Overpasses (SNOs) Predictions

Prediction of SNOs between AQUA and NOAA-19 Satellite Orbit:

Table of predicted SNOs for the next 14.0 days since TLE Epoch: 10/20/2012
Index Date (AQUA) Time (AQUA) AQUA Lat,Lon Date (NOAA-19) Time (NOAA-19) NOAA-19 Lat,Lon Distance(km) Time Diff (sec)
1 10/20/2012 13:55:13 46.05,-176.45 10/20/2012 13:54:06 45.94,-175.85 48.26 67
2 10/20/2012 14:44:11 -47.92, -8.11 10/20/2012 14:44:43 -47.87, -7.85 20.14 32
3 10/22/2012 18:39:30 46.06, 112.48 10/22/2012 18:38:40 45.97, 113.03 43.43 50
4 10/22/2012 19:28:12 -48.88, -78.80 10/22/2012 19:29:00 -48.86, -78.56 17.52 48
5 10/24/2012 23:23:48 46.02, 41.39 10/24/2012 23:23:15 45.94, 41.88 38.57 33
6 10/25/2012 00:12:12 -49.90,-149.44 10/25/2012 00:13:17 -49.84,-149.26 15.03 65
7 10/27/2012 04:08:05 46.04, -29.67 10/27/2012 04:07:49 45.96, -29.25 33.84 16
8 10/27/2012 04:52:22 -64.30, 148.05 10/27/2012 04:53:36 -64.15, 148.76 38.41 74
9 10/29/2012 08:52:23 46.01,-100.75 10/29/2012 08:52:23 45.98,-100.38 29.34 0
10 10/29/2012 09:27:50 -78.98,-165.60 10/29/2012 09:29:03 -78.42,-168.06 82.24 73
11 10/31/2012 13:36:24 47.00,-171.46 10/31/2012 13:36:40 46.96,-171.11 26.22 16
12 10/31/2012 14:02:13 -46.08, 164.67 10/31/2012 14:03:22 -45.84, 163.43 99.51 69
13 11/02/2012 17:31:35 -46.03, -50.55 11/02/2012 17:30:36 -45.94, -49.93 48.85 59




NCC Satellite Simultaneous Nadir Overpasses (SNOs) Prediction Service
